Skip Page Navigation
NASA JPL Caltech
NASA Logo - Jet Propulsion Laboratory + View the NASA Portal
+ Near-Earth Object (NEO) Program
Search JPL
JPL Home Earth Solar System Stars & Galaxies Technology
JPL Solar System Dynamics
BODIES ORBITS EPHEMERIDES TOOLS PHYSICAL DATA DISCOVERY FAQ SITE MAP
JPL Small-Body Database Browser
Search: [ help ]  
253 Mathilde (1949 OL1)
Classification: Main-belt Asteroid          SPK-ID: 2000253
Ephemeris | Orbit Diagram | Orbital Elements | Physical Parameters | Discovery Circumstances ]

[ hide orbit diagram ]
Orbit Diagram
Note: Make sure you have Java enabled on your browser to see the applet. This applet is provided as a 3D orbit visualization tool. The applet was implemented using 2-body methods, and hence should not be used for determining accurate long-term trajectories (over several years or decades) or planetary encounter circumstances. For accurate long-term ephemerides, please instead use our Horizons system.
Orbit Viewer

Additional Notes: the orbits shown in the applet are color coded. The planets are white lines, and the asteroid/comet is a blue line. The bright white line indicates the portion of the orbit that is above the ecliptic plane, and the darker portion is below the ecliptic plane. Likewise for the asteroid/comet orbit, the light blue indicates the portion above the ecliptic plane, and the dark blue the portion below the ecliptic plane.

Orbit Viewer applet originally written and kindly provided by Osamu Ajiki (AstroArts), and further modified by Ron Baalke (JPL).


Orbital Elements at Epoch 2456400.5 (2013-Apr-18.0) TDB
Reference: JPL 176 (heliocentric ecliptic J2000)
 Element Value Uncertainty (1-sigma)   Units 
e .2661405097875338 2.3862e-08  
a 2.646589911002936 6.9171e-09 AU
q 1.942225122890071 6.3188e-08 AU
i 6.741323315054161 4.4784e-06 deg
node 179.6192095753536 2.1664e-05 deg
peri 157.32371454 2.2027e-05 deg
M 255.9701864167567 7.3395e-06 deg
tp 2456854.947506934963
(2014-Jul-16.44750693)
3.3237e-05 JED
period 1572.636697706616
4.31
6.1653e-06
1.688e-08
d
yr
n .2289149175553323 8.9743e-10 deg/d
Q 3.350954699115801 8.758e-09 AU
  Orbit Determination Parameters
   # obs. used (total)      2104  
   # delay obs. used      1  
   # Doppler obs. used      0  
   data-arc span      46528 days (127.39 yr)  
   first obs. used      1885-12-01  
   last obs. used      2013-04-22  
   planetary ephem.      DE405  
   SB-pert. ephem.      SB405-CPV-2  
   condition code      0  
   fit RMS      .63563  
   data source      ORB  
   producer      Otto Matic  
   solution date      2013-Apr-29 12:33:41  

Additional Information
 Earth MOID = .934956 AU 
 T_jup = 3.331 
[ show covariance matrix ]

Ephemeris | Orbit Diagram | Orbital Elements | Physical Parameters | Discovery Circumstances ]

Physical Parameter Table
Parameter Symbol Value Units Sigma Reference Notes
absolute magnitude H 10.20 mag n/a IRAS-A-FPA-3-RDR-IMPS-V6.0 IRAS observations used: 20
diameter diameter 52.8 km n/a n/a Yeomans E-mail 2001-Apr-04
GM GM 0.00689 km^3/s^2 0.00030 Yeomans et al. (1997) Science v.278, pp.2106-2109  
bulk density density 1.3 g/cm^3 0.2 Yeomans et al. (1997) Science v.278, pp.2106-2109 based on a nominal volume of 78000 km^3 (with lower/uppper limits of 67000/90000 km^3)
rotation period rot_per 417.7 h n/a Asteroid Lightcurve DataBase (Rev. 2013-May-01) Published Reference List:
[Mottola, S.; Sears, W.D.; Erikson, A.; Harris, A.W.; et al. (1995) Planet. Space Sci. 43, 1609-1613.]
[Pravec, P.; et al. (2005) Icarus 173, 108-131.]
geometric albedo albedo 0.0436   0.004 IRAS-A-FPA-3-RDR-IMPS-V6.0 IRAS observations used: 20
SMASSII spectral type spec_B Cb   n/a EAR-A-5-DDR-TAXONOMY-V4.0 based on a high-resolution spectrum by Xu et al. (1995) or Bus and Binzel (2002)

253 Mathilde          Discovered 1885-Nov-12 by Palisa, J. at Vienna
Reference: DISCOVERY.DBLast Updated: 2003-08-29

Alternate Designations
 1949 OL1 = A915 TN 
Ephemeris | Orbit Diagram | Orbital Elements | Physical Parameters | Discovery Circumstances ]
ABOUT SSD CREDITS/AWARDS PRIVACY/COPYRIGHT GLOSSARY LINKS
FirstGov 2013-May-22 11:06 UT
(server date/time)  
NASA Home Page
Site Manager:   Donald K. Yeomans
Webmaster  Alan B. Chamberlin